Theta_e
317 317 315 316 318 319 322 323 331 332 327 325 324 327 324 321 324 322 323 324 325 324 324 326 324 324 325 330 332 333 333 335 337 338 340 338 336 338 336 337 335 332 331 328 329 332 331 325 319 316 314 311 309 310 308 308 310 311 313 315 319 322 325 325 324 321 316 315 314 315 320 323 325 325 323 324 324 321 315 311 314 317 318 318 316 315 312 311 311 311 311 311 311 311 311 311 313
317 317 315 316 318 320 324 323 329 331 325 322 322 324 323 322 323 321 323 324 325 325 324 323 323 324 325 327 329 332 337 338 338 337 338 337 337 338 337 338 334 332 330 326 330 332 328 322 318 315 313 311 310 310 308 309 311 312 316 321 324 328 329 328 327 321 315 314 316 319 324 326 328 327 324 324 325 324 318 311 313 317 320 322 322 320 317 313 311 311 311 310 311 311 310 311 313
316 316 315 317 321 321 324 323 325 325 321 321 322 323 324 325 324 322 323 324 325 325 322 322 323 324 324 329 333 336 338 338 338 338 338 338 338 338 339 338 334 332 328 325 331 331 324 320 317 315 313 311 310 310 309 310 314 318 323 326 328 330 331 330 328 321 313 312 315 322 326 326 327 325 322 320 321 322 317 311 311 314 317 318 320 320 317 313 310 310 310 310 310 311 310 311 313
316 315 315 320 324 325 326 326 328 325 321 322 320 320 325 326 324 323 323 325 325 323 323 324 324 324 326 331 334 335 337 338 338 339 339 339 339 338 339 337 333 331 327 327 332 328 321 318 316 314 312 311 310 310 311 312 316 323 326 328 328 330 332 331 328 323 313 312 314 319 325 325 324 322 318 319 320 318 314 311 311 311 313 313 313 313 312 311 312 312 309 310 310 310 311 312 314
316 314 318 324 327 326 325 325 330 326 322 326 321 320 325 325 325 323 324 325 324 323 325 326 325 324 327 331 333 335 336 338 337 338 339 339 338 338 337 335 333 329 326 330 331 325 320 317 315 314 313 312 311 311 311 312 316 322 325 327 328 329 331 330 326 323 314 311 312 313 322 324 322 321 317 320 319 314 312 312 312 313 315 315 313 310 310 312 313 313 310 309 311 311 311 313 315
315 314 318 323 325 323 324 324 327 325 323 329 323 322 325 323 325 323 323 325 324 324 324 325 324 324 330 333 334 335 335 336 337 336 338 338 338 337 334 332 331 328 328 332 329 323 319 317 315 314 312 312 311 311 311 311 314 319 324 325 327 328 329 329 324 320 312 309 310 312 319 322 322 322 320 321 316 312 312 313 315 317 319 320 320 315 313 318 317 314 311 310 311 312 313 314 316
315 317 319 322 324 321 326 325 327 328 320 323 322 323 324 321 323 323 323 324 324 324 324 325 324 325 330 333 334 335 334 335 337 336 336 337 338 337 334 332 330 328 331 333 329 323 319 317 316 314 312 312 311 311 311 311 312 316 322 323 324 326 328 328 322 315 310 308 310 312 317 319 320 319 320 320 315 312 313 316 317 316 317 318 321 319 316 318 317 312 311 312 312 313 314 316 318
316 321 322 323 328 325 326 326 329 331 319 318 321 322 322 321 322 322 322 323 323 324 324 324 323 325 328 330 334 336 334 335 337 337 337 337 338 337 335 333 328 330 334 333 330 324 319 318 318 316 313 312 312 311 311 311 311 313 319 322 321 325 326 321 315 310 308 307 309 310 313 316 317 316 317 318 315 315 315 316 315 314 315 315 317 319 318 317 316 313 311 313 313 314 316 317 319
317 323 323 323 330 327 325 326 327 325 320 319 319 321 321 321 321 321 321 320 322 322 324 324 321 325 328 331 335 336 336 337 337 336 336 337 338 337 337 333 327 332 336 334 331 324 319 319 319 318 316 313 312 312 312 312 313 312 315 319 319 321 319 313 309 308 308 308 308 309 310 313 314 316 318 318 317 317 316 315 315 315 315 315 315 315 317 316 317 315 312 313 314 315 316 318 319
319 323 323 324 328 325 324 325 324 322 321 320 319 321 322 321 320 320 320 319 321 321 323 323 322 326 331 333 335 335 336 338 337 335 336 336 337 337 336 334 328 332 337 335 331 325 320 320 319 319 318 316 314 313 313 313 314 313 313 314 314 313 311 309 308 307 308 307 308 309 310 313 316 318 320 320 319 317 316 317 318 318 317 317 315 313 313 313 313 312 312 313 314 315 316 318 318
322 323 321 324 325 322 324 324 322 322 320 319 318 320 321 321 320 319 319 320 321 322 322 321 322 328 332 335 334 333 333 337 336 334 336 336 336 336 336 335 331 333 337 335 331 327 321 320 320 320 320 318 317 315 315 315 315 314 313 313 312 311 309 308 308 308 308 307 308 310 313 316 318 318 319 319 318 318 319 320 320 320 320 319 318 315 313 311 312 311 312 313 314 315 316 317 318
325 325 321 325 328 326 328 325 322 321 319 320 319 320 321 320 320 318 319 322 322 322 322 320 321 326 333 335 334 332 332 335 334 332 334 336 336 336 335 335 334 333 335 334 331 328 323 321 321 320 321 321 319 318 317 317 317 316 315 314 313 312 311 310 309 309 308 308 309 313 317 318 318 318 318 318 319 321 321 321 322 322 322 322 321 319 316 313 312 311 312 312 314 315 316 317 318
324 325 321 325 331 329 328 325 322 322 319 320 319 319 322 320 320 319 319 321 321 322 321 320 319 323 332 334 335 333 332 333 333 332 333 335 335 336 335 335 334 333 334 335 333 329 325 322 321 321 321 322 321 320 320 319 318 318 317 316 315 314 313 312 311 311 311 311 312 316 319 319 319 320 320 320 321 322 322 323 323 322 322 322 322 322 321 318 315 313 312 312 313 313 315 316 317
321 322 321 325 329 325 325 323 321 323 320 320 319 319 321 320 320 319 320 320 319 320 319 320 318 323 334 335 335 332 331 332 332 332 333 335 335 335 335 335 333 332 333 335 334 330 327 325 322 321 321 322 322 322 322 321 320 320 320 319 318 317 315 315 314 314 314 314 315 318 319 320 320 320 321 321 322 322 323 323 323 323 323 323 323 323 322 322 320 317 314 312 312 312 313 314 315
320 321 323 327 328 324 327 325 322 324 321 320 319 319 320 319 319 318 319 319 319 319 318 320 318 322 332 335 336 330 327 331 331 332 334 334 335 335 335 335 334 330 330 333 334 330 328 327 324 322 321 321 321 322 322 322 322 322 321 321 320 319 317 317 316 316 316 316 317 318 319 320 320 320 321 321 322 323 323 323 323 323 323 323 323 322 322 322 322 321 319 316 313 312 311 312 313
320 320 323 326 329 326 329 326 323 326 321 319 319 319 320 318 319 318 318 319 319 318 318 319 318 322 327 328 328 323 322 328 330 331 334 335 335 336 335 336 334 330 329 330 333 331 328 328 326 323 321 321 321 321 322 322 323 322 323 323 322 321 320 318 318 317 317 317 317 318 319 320 320 321 321 321 322 322 322 322 322 322 322 322 322 322 321 321 322 322 322 320 318 315 313 312 312
319 320 324 326 330 328 328 326 324 326 321 318 318 318 320 318 318 318 318 319 319 318 318 318 319 323 326 325 323 322 321 325 330 330 332 335 335 336 336 336 334 331 330 330 331 329 328 329 326 324 322 321 322 321 321 321 322 323 323 323 323 323 322 321 320 319 318 318 318 318 319 319 320 320 320 321 321 321 321 321 321 321 321 321 321 321 321 321 321 321 322 322 321 320 317 315 313
319 325 325 324 330 329 329 329 324 323 320 318 318 318 319 319 318 318 318 318 318 318 319 319 321 324 324 324 325 325 322 323 329 329 331 334 335 335 334 335 334 332 332 331 330 328 328 330 328 326 324 322 323 322 322 322 321 322 322 323 323 324 324 323 323 321 320 320 319 318 319 319 319 320 320 320 320 320 320 321 321 320 321 321 321 321 320 321 321 321 321 321 322 322 322 320 317
320 326 325 326 332 327 323 323 319 319 319 317 317 318 319 319 317 318 317 317 317 318 320 320 325 330 327 328 330 328 325 323 325 327 329 331 333 333 332 333 332 330 332 331 330 329 327 330 330 328 326 324 325 326 326 325 323 322 322 322 322 323 324 324 324 324 323 323 321 320 320 319 319 319 319 319 320 320 320 320 320 320 320 320 320 320 320 320 321 321 321 322 322 322 322 322 321
318 320 323 330 328 320 317 317 318 318 318 317 317 318 318 318 317 317 317 316 316 317 320 321 328 333 332 331 332 329 327 324 324 326 328 329 329 330 329 328 328 327 331 330 329 331 330 330 331 330 328 326 327 329 330 330 328 326 324 323 322 322 322 323 324 324 324 324 323 323 322 321 321 321 320 320 320 320 320 320 320 320 320 320 320 321 321 321 321 321 322 322 322 322 322 322 322
318 317 323 327 320 318 318 316 318 318 317 318 317 318 317 318 317 317 317 317 316 315 318 320 323 328 328 329 329 327 326 325 324 325 327 328 327 328 327 326 325 325 329 330 327 330 333 332 331 331 330 328 327 329 331 332 331 330 328 326 325 325 324 323 323 323 324 324 324 324 324 323 324 323 323 323 323 322 322 322 322 322 321 321 321 321 321 321 322 322 322 322 322 322 323 323 323
318 317 319 320 317 319 318 315 317 317 317 318 317 318 317 317 317 317 317 318 318 316 316 316 316 318 320 323 323 323 324 324 323 323 325 327 327 327 327 327 326 326 328 329 326 328 332 333 332 331 331 330 328 328 330 331 331 331 331 329 327 327 327 325 323 323 323 323 324 324 324 324 324 325 325 325 325 325 325 325 324 324 324 324 323 323 322 322 323 323 322 322 322 323 323 323 323
319 319 317 317 317 318 317 315 317 317 318 317 317 317 317 317 317 317 316 317 317 316 317 316 316 316 315 316 318 319 321 321 320 318 321 324 325 325 325 326 326 326 326 327 326 326 329 331 332 332 332 331 330 330 329 330 330 329 330 330 328 327 327 326 325 324 323 323 324 324 325 325 324 325 325 325 325 325 325 325 326 326 326 326 325 325 325 325 325 324 324 324 324 323 323 324 324
318 319 317 316 316 316 316 316 315 318 318 317 318 317 317 317 317 317 316 316 316 317 317 317 316 316 316 316 315 315 317 318 316 314 316 319 322 322 323 324 325 325 324 324 325 326 326 328 330 331 332 330 330 330 329 329 328 328 327 328 327 326 326 326 325 325 324 324 324 325 325 325 325 325 325 325 325 325 325 325 326 326 326 327 327 327 327 327 327 326 326 326 325 325 324 324 324
317 318 317 315 316 315 316 316 315 317 317 317 317 316 316 316 316 316 316 316 316 315 317 317 317 317 316 316 315 314 314 315 315 315 316 319 322 323 323 324 325 325 325 324 324 325 325 326 328 329 329 329 329 329 329 328 327 326 326 326 325 325 326 325 324 324 324 324 325 326 325 325 325 325 326 326 325 325 326 326 326 326 326 326 327 328 328 328 328 328 327 327 326 326 326 325 324
317 317 316 315 314 314 315 315 315 316 316 316 317 315 315 315 316 316 316 316 316 315 316 317 318 318 318 316 314 314 314 315 315 315 316 317 322 325 325 326 327 326 326 326 324 324 325 325 326 326 327 327 327 327 327 327 326 325 325 324 324 324 324 324 324 323 323 323 324 326 326 326 326 326 326 326 327 327 327 326 326 326 327 326 327 328 328 328 328 328 328 328 327 327 327 326 326
316 315 316 315 314 314 314 315 315 315 316 316 317 316 314 315 316 317 317 316 316 316 316 317 317 318 319 317 315 315 314 314 314 314 315 317 321 324 326 329 331 330 328 327 325 324 323 324 324 325 326 326 326 325 324 324 325 324 323 322 322 323 323 323 323 322 322 322 322 324 326 326 327 327 327 327 327 327 328 327 327 327 327 327 327 328 328 328 328 329 328 327 326 326 326 326 326
316 315 316 315 314 314 314 314 314 315 315 315 316 315 314 315 316 317 317 316 316 316 316 317 316 317 318 318 316 316 315 314 314 314 314 316 318 320 323 328 332 333 331 328 326 325 324 323 323 324 325 325 325 323 323 322 322 322 322 322 321 322 322 322 322 321 320 320 321 321 323 325 326 327 327 327 327 327 327 328 328 328 328 328 328 328 328 328 328 328 328 327 326 325 325 325 325
315 316 317 315 314 315 315 314 314 315 315 315 315 315 316 316 316 317 316 316 316 315 315 315 315 315 315 316 316 316 315 315 315 314 314 314 314 315 317 321 327 331 332 330 329 327 324 321 321 323 323 324 323 322 322 321 321 321 321 321 321 321 320 321 321 320 319 319 321 320 320 321 324 327 327 327 327 327 326 326 327 328 328 328 328 328 328 328 328 328 328 327 327 326 325 325 325
316 315 316 317 315 316 316 314 314 315 315 315 315 317 320 319 316 316 316 316 315 315 315 314 314 315 314 314 314 314 314 314 315 314 314 314 314 314 314 316 320 325 329 331 331 326 322 320 321 322 322 322 321 321 321 321 320 319 320 320 319 320 320 320 319 319 318 319 319 319 318 317 320 324 326 327 327 327 326 325 324 325 327 328 329 328 328 328 328 328 328 328 327 327 327 326 325
316 314 316 318 318 320 319 313 314 316 315 314 314 317 322 321 316 315 315 315 315 315 315 315 314 314 314 315 314 314 314 314 314 314 314 314 314 314 314 315 316 320 326 329 327 323 320 319 320 320 320 320 320 320 319 319 319 319 319 320 319 319 319 319 318 317 317 317 318 318 317 316 316 319 324 326 327 327 326 325 324 323 324 327 328 328 328 329 329 329 328 328 327 327 327 326 325
315 315 318 318 318 323 320 312 313 316 315 314 313 316 320 319 316 315 315 315 316 316 315 315 315 315 315 315 315 315 315 315 314 314 314 314 314 314 314 314 315 317 322 325 325 324 321 318 318 318 318 318 318 318 318 318 319 319 319 320 320 319 319 318 317 316 316 316 317 317 317 317 316 315 318 322 326 327 326 326 325 324 324 325 325 325 325 326 327 328 327 326 326 325 325 325 326
315 316 321 320 317 320 319 314 313 314 315 313 313 317 318 317 314 313 315 315 315 315 315 315 315 316 315 314 315 315 317 318 317 315 314 314 314 314 314 314 315 315 317 320 322 322 321 318 317 317 316 316 316 317 318 318 318 318 319 319 319 318 317 316 316 316 315 315 315 316 316 316 316 315 314 317 321 324 326 326 326 326 325 324 324 323 322 322 323 325 327 326 326 325 323 324 326
316 314 318 322 318 317 318 318 314 313 314 314 313 315 318 316 313 313 314 314 315 314 314 315 315 315 315 315 315 315 316 317 317 315 313 314 314 314 314 314 314 314 315 317 319 319 319 318 316 315 315 314 315 316 317 316 316 317 318 319 319 318 316 315 315 315 314 314 313 314 315 315 314 315 316 316 316 319 322 323 325 326 325 324 324 325 324 324 325 326 327 326 325 325 324 324 325
320 316 315 318 318 316 318 319 316 314 314 315 314 314 316 317 313 313 314 314 314 315 315 315 315 315 315 316 315 315 316 315 315 314 313 314 314 314 314 314 314 314 314 315 316 318 318 318 317 315 315 314 314 315 316 316 316 316 318 318 318 317 315 314 314 314 314 313 314 313 313 314 314 315 317 318 318 316 317 319 322 323 325 325 323 323 324 323 323 323 324 325 325 325 324 324 324
321 319 315 316 317 315 317 319 316 314 315 316 316 314 314 315 314 313 314 314 313 314 315 314 315 315 315 316 316 316 315 315 314 313 313 314 314 314 314 314 314 314 313 314 315 316 316 317 317 316 315 314 314 314 315 315 316 316 316 317 317 316 315 314 314 314 314 314 314 314 314 313 314 315 317 319 320 318 318 320 321 321 321 323 322 322 324 322 321 321 322 324 325 326 325 324 325
315 316 316 316 318 316 316 319 315 312 315 316 316 316 315 315 315 313 312 314 313 313 313 313 314 314 314 315 315 315 315 315 314 314 313 313 314 314 314 314 314 314 314 314 314 314 315 315 315 315 314 314 314 314 314 314 314 315 315 315 315 314 314 314 314 314 314 314 314 315 315 314 315 315 316 318 319 319 320 321 322 320 320 323 325 326 326 323 323 324 323 322 322 323 324 324 325
313 318 317 314 318 318 316 316 315 312 314 316 316 315 315 315 315 312 311 313 313 313 312 313 314 314 315 315 315 315 315 315 315 314 314 314 314 314 314 314 314 314 314 313 314 314 314 314 314 314 314 314 314 313 313 313 313 313 314 314 314 315 315 314 314 314 315 315 315 315 315 315 315 315 316 319 321 322 322 321 321 323 323 324 326 327 325 322 324 326 326 323 322 322 323 322 322
315 320 318 315 317 317 315 315 315 313 314 317 317 315 315 315 314 312 310 312 313 314 314 314 314 314 314 315 315 315 315 315 315 315 315 314 314 314 314 314 314 314 314 314 314 314 314 314 314 314 314 314 314 313 314 313 313 313 314 314 315 316 315 315 315 315 316 316 316 316 316 316 315 315 317 320 323 324 323 323 323 324 324 323 324 325 323 322 324 327 328 327 324 323 325 324 323
317 318 318 319 319 317 316 315 314 313 313 315 316 315 315 314 315 314 312 313 313 313 315 315 315 315 315 315 315 315 315 315 316 315 315 314 315 315 314 314 314 314 314 314 314 314 314 314 314 314 314 314 314 314 314 314 314 315 315 315 316 317 317 317 317 316 316 316 316 316 316 316 316 316 317 319 323 324 324 325 324 323 325 327 327 326 324 323 325 328 329 328 325 325 326 326 324
318 319 319 321 320 318 318 316 314 313 313 315 314 315 318 316 314 315 313 313 313 313 314 314 315 315 315 316 315 315 315 314 315 315 315 315 315 315 315 314 314 314 314 314 314 314 314 314 314 314 314 315 314 314 314 314 314 315 315 316 317 317 317 317 317 316 316 315 315 316 317 317 317 316 318 322 325 325 326 327 324 323 327 328 326 325 324 323 324 326 325 322 323 324 324 324 325
317 321 321 319 320 321 319 318 318 315 315 317 313 314 326 327 319 316 313 312 312 312 312 312 315 316 315 316 316 315 315 315 315 315 315 316 315 315 315 315 315 314 314 314 314 314 314 314 314 314 314 314 314 314 314 314 314 314 314 315 316 316 316 316 315 315 315 316 316 317 318 318 317 317 319 321 323 323 325 325 324 324 324 325 325 326 326 325 324 323 321 321 322 323 324 324 325
315 318 321 322 324 325 322 319 320 319 317 316 313 314 323 326 321 320 317 315 315 312 311 311 313 315 315 315 316 316 315 315 315 315 316 316 316 316 316 316 315 315 314 314 315 314 314 314 314 314 314 314 314 314 314 314 314 314 314 314 314 315 315 315 315 316 316 317 318 318 319 318 318 318 318 318 319 321 322 323 323 324 322 323 327 329 327 325 324 322 323 325 324 324 327 326 324
317 320 324 325 324 324 325 321 320 321 318 317 319 316 317 319 320 322 319 317 317 314 314 313 312 313 315 315 316 316 315 315 315 316 316 317 317 317 317 317 316 315 315 315 315 315 315 315 314 314 314 314 314 314 314 314 314 314 314 314 315 315 315 316 316 317 317 317 317 317 317 318 317 316 316 316 317 319 320 321 321 321 322 324 326 327 326 324 324 325 326 325 322 323 326 325 323
320 323 325 326 325 327 329 324 320 319 316 321 325 317 315 322 327 325 318 315 317 318 319 315 312 314 315 315 316 316 316 316 316 317 317 318 318 318 317 317 316 315 315 315 314 315 314 315 314 314 314 314 314 314 314 314 314 314 315 315 316 316 316 316 317 316 316 316 316 315 315 316 315 315 316 316 316 317 318 319 319 319 321 323 324 325 324 322 322 323 323 323 322 323 324 323 322
318 321 325 327 329 329 325 325 325 318 315 324 329 319 315 323 329 325 316 315 318 320 321 315 311 314 316 316 316 316 316 316 316 317 317 317 317 317 316 315 315 315 314 314 314 314 314 314 314 314 314 314 314 314 314 314 314 315 315 315 316 315 316 316 316 315 315 315 315 315 315 315 315 315 315 316 316 316 316 316 317 317 318 320 321 321 321 320 320 320 321 323 323 323 323 324 322
315 321 326 324 327 330 328 330 326 317 320 330 331 322 314 317 327 324 316 318 321 318 319 316 312 313 313 315 315 315 316 315 315 315 315 316 315 315 315 314 314 314 313 313 313 313 313 313 313 313 313 313 314 314 314 314 314 314 314 314 314 314 314 315 314 314 314 314 314 315 315 315 315 315 315 315 315 315 315 315 315 315 316 317 317 317 318 318 319 320 321 322 322 322 323 323 321
318 325 325 318 322 331 331 328 321 316 325 329 323 319 315 316 325 325 318 319 319 316 319 321 318 314 313 314 314 314 315 315 315 315 314 314 314 314 313 313 313 313 313 313 312 312 312 313 313 312 312 312 313 313 313 313 312 312 312 312 312 312 313 313 313 314 314 314 315 315 315 315 314 314 314 314 314 314 313 313 313 313 314 314 314 314 314 315 316 317 318 319 320 321 320 320 319
320 323 319 315 319 323 322 322 320 321 325 320 314 316 317 317 320 320 318 318 316 314 316 320 318 314 315 315 315 315 315 315 314 314 313 313 313 313 312 312 312 312 312 312 312 312 311 312 312 311 312 312 312 312 311 311 311 311 312 312 312 312 312 313 313 314 314 314 315 314 314 314 314 314 314 313 314 313 313 313 313 312 312 312 312 312 313 313 313 314 314 315 316 316 316 316 316
318 317 316 318 320 317 315 319 320 320 321 316 311 314 318 318 317 318 318 315 314 312 312 315 316 315 316 316 315 316 314 314 314 313 313 313 312 312 312 312 312 312 312 312 311 311 310 311 311 311 311 311 311 311 310 311 311 311 312 312 312 313 313 313 314 314 314 314 314 314 314 314 314 314 314 314 314 313 313 313 312 312 312 312 312 312 312 312 312 312 312 312 312 313 313 313 313
317 319 317 318 322 321 320 321 321 319 319 315 310 314 321 320 317 318 314 310 312 313 312 314 315 315 316 315 315 315 313 313 314 313 313 313 312 312 311 311 311 311 311 311 311 310 310 311 311 311 311 311 310 310 310 310 311 311 312 312 313 314 314 314 314 314 314 314 314 314 314 314 314 314 314 313 314 313 313 313 313 313 313 312 312 311 311 311 311 311 311 311 311 311 311 311 311
317 320 319 317 321 329 326 322 325 324 319 316 313 318 324 319 315 314 310 310 312 311 312 314 314 315 315 314 314 313 313 314 314 314 314 313 312 312 311 311 310 310 310 310 311 311 311 311 311 311 311 310 310 310 310 310 311 312 313 314 314 314 314 314 314 314 314 314 314 314 314 314 314 314 314 313 313 313 313 313 313 313 313 313 312 312 311 311 311 311 311 311 311 311 311 310 310
318 317 320 321 319 326 324 316 317 316 316 319 316 317 322 317 315 317 313 313 313 311 311 311 312 313 312 312 313 312 313 313 314 315 314 314 313 312 312 311 311 311 311 311 312 312 311 311 311 310 310 310 310 310 311 312 313 314 314 314 314 314 314 314 314 314 314 314 314 314 314 314 314 314 314 313 313 313 313 313 313 313 312 312 312 311 311 311 311 311 310 310 310 310 309 308 308
319 317 318 319 315 321 323 316 314 313 315 321 316 314 320 318 319 323 317 314 315 314 312 310 310 311 310 311 312 312 314 314 314 315 315 315 314 313 313 312 312 312 312 312 312 311 311 310 311 311 311 311 312 312 313 314 314 314 314 314 314 314 314 314 314 314 314 314 314 314 314 313 314 313 313 313 313 313 313 312 312 312 311 311 311 311 310 310 309 308 308 307 306 305 305 304 303
316 316 315 318 317 319 320 317 318 316 314 321 319 316 318 318 321 324 317 317 320 317 314 312 311 310 310 311 312 313 314 314 314 315 315 315 315 314 314 313 313 312 311 312 311 311 311 311 312 312 313 313 314 314 314 314 314 314 314 314 314 314 314 314 314 314 314 314 313 313 313 313 314 313 313 313 313 312 312 312 311 311 311 310 309 308 307 306 305 304 303 303 302 302 302 301 301
313 314 313 317 319 320 320 317 319 322 318 320 321 317 320 323 323 322 317 319 322 318 316 313 309 310 311 311 312 313 314 314 314 315 315 315 315 314 314 313 313 312 312 312 312 312 313 313 314 314 314 314 314 314 314 314 314 314 314 314 314 314 314 314 314 314 313 314 313 313 313 313 313 313 313 312 312 312 311 311 311 310 309 308 306 304 303 303 302 302 302 301 301 300 300 299 298
314 315 313 314 315 316 319 318 321 325 321 320 318 317 328 331 322 319 315 315 318 317 317 314 308 309 312 311 312 314 314 314 314 314 315 315 315 314 314 314 314 313 313 313 313 314 314 314 314 314 314 314 314 314 314 314 314 314 314 314 314 314 314 314 314 314 313 314 313 313 313 313 313 312 312 312 311 311 311 310 309 308 306 305 303 303 302 302 301 301 300 299 298 298 297 297 297
314 314 314 315 314 315 317 316 320 321 319 322 319 316 330 334 320 318 316 313 314 311 311 312 308 310 312 311 312 313 313 314 314 314 314 315 315 314 314 314 314 314 314 314 314 314 314 314 314 314 314 314 314 314 314 314 314 314 314 314 314 314 314 314 314 313 313 313 313 313 312 312 312 312 311 311 310 310 309 308 306 305 304 303 303 302 302 301 300 299 298 297 297 297 297 296 296
Wind_Speed
3 3 5 6 5 5 4 3 1 2 2 0 3 1 1 2 4 5 6 6 5 6 12 12 14 15 7 10 12 13 12 4 3 2 6 12 19 17 15 13 13 13 12 12 12 11 10 9 9 9 10 11 11 12 12 12 14 17 18 17 16 15 14 14 13 12 11 9 9 11 13 13 15 15 15 15 15 14 13 14 14 13 14 14 14 14 14 14 14 14 14 15 15 15 15 14 15
4 3 5 7 5 4 4 2 0 3 3 1 3 2 3 1 5 6 6 5 6 8 13 15 15 16 11 14 10 9 13 10 6 13 20 22 22 17 15 13 12 13 12 12 12 11 10 9 9 9 10 11 12 12 12 12 15 18 18 18 17 15 14 13 12 12 12 10 10 12 14 14 15 15 14 15 15 14 13 14 13 13 13 13 13 13 13 13 13 14 14 14 15 15 15 15 16
4 4 4 6 3 3 5 3 1 1 2 2 3 3 1 5 6 6 9 11 13 14 13 14 11 13 13 10 9 7 7 10 16 23 25 22 22 20 17 15 13 13 12 13 13 11 10 9 9 9 11 12 13 13 13 13 16 18 17 17 17 16 14 12 11 11 13 11 11 13 14 14 15 14 13 13 14 13 13 13 12 12 13 13 13 13 13 14 13 13 14 15 15 16 16 17 17
4 5 4 5 4 3 2 2 2 2 1 3 2 3 2 8 8 7 14 18 16 14 12 9 6 9 14 11 9 10 7 8 16 23 24 20 21 21 18 16 15 13 13 14 13 11 10 9 9 10 11 12 13 14 14 14 17 18 18 18 17 16 14 11 9 10 12 12 12 14 13 14 14 13 12 13 13 13 13 13 12 13 13 13 13 14 13 13 13 13 14 15 15 16 16 17 18
4 5 3 3 3 2 1 1 1 3 1 3 3 2 3 8 9 9 14 18 13 12 11 6 3 8 14 10 8 8 8 10 14 20 23 20 18 19 19 18 16 14 14 14 13 11 10 10 10 11 12 13 13 14 14 16 18 19 19 18 17 15 13 10 8 9 11 11 13 14 13 13 13 12 12 13 13 14 14 13 12 13 13 13 13 14 13 13 12 13 14 14 15 15 16 17 18
5 5 4 3 3 2 1 0 1 1 4 4 5 4 5 7 11 13 15 15 12 11 10 7 6 9 11 10 11 11 9 10 13 18 21 20 18 17 18 19 17 16 16 15 14 11 11 11 11 11 12 13 13 14 15 16 18 18 18 18 16 15 13 10 9 9 10 11 12 13 13 13 12 12 12 13 14 15 14 13 13 14 14 14 14 13 13 12 12 13 14 14 15 15 16 17 17
4 3 1 2 3 2 1 2 2 2 3 3 7 7 7 9 15 17 13 10 8 9 10 9 11 11 8 9 12 10 9 10 14 16 18 21 19 16 16 17 17 17 17 16 14 12 11 11 11 12 13 14 14 14 15 16 16 17 18 18 16 14 12 11 9 10 11 12 12 12 13 13 13 13 14 14 15 15 13 14 15 16 15 14 13 13 12 12 13 13 13 14 15 16 16 16 15
4 1 2 2 1 1 1 2 3 3 1 3 7 10 12 16 19 15 8 8 6 6 9 9 11 9 5 10 9 8 13 12 13 15 18 22 20 16 15 16 18 18 17 16 14 12 12 12 12 13 14 14 14 14 15 15 16 16 17 17 16 14 12 11 10 11 12 12 12 12 12 12 13 14 14 14 14 14 15 16 17 17 16 15 14 13 13 12 12 13 13 14 15 15 15 15 14
4 1 1 1 0 2 2 1 2 3 1 3 6 12 19 20 19 14 7 8 9 8 9 8 7 7 6 12 11 11 14 11 12 16 21 23 20 16 14 15 17 18 17 15 15 13 13 13 12 13 14 15 15 15 15 15 16 16 16 16 16 14 12 12 12 12 13 13 13 13 13 13 13 14 13 14 14 15 17 18 18 18 18 17 16 15 14 13 12 12 13 14 15 15 15 14 13
4 2 1 1 1 2 4 3 2 2 2 4 7 13 20 19 17 16 12 9 11 10 9 7 7 11 11 13 12 10 12 12 15 20 25 23 20 18 14 14 15 17 16 15 15 14 13 13 12 13 14 15 15 15 15 15 16 16 16 16 15 14 13 13 13 13 13 14 14 14 14 14 14 14 14 14 15 18 19 19 19 19 19 19 19 17 16 14 13 12 13 13 14 14 14 13 12
1 2 1 1 1 2 4 3 3 2 2 2 5 11 17 19 17 15 15 11 12 13 10 8 9 16 14 10 10 10 12 14 17 23 27 24 21 18 15 14 13 14 14 15 16 14 14 14 13 13 14 15 15 15 15 15 15 16 15 16 15 15 15 14 14 14 14 14 14 14 14 15 15 15 15 16 17 19 19 19 19 18 18 19 19 19 17 16 14 13 12 12 13 13 13 12 11
0 2 1 2 2 4 4 3 5 3 1 1 2 7 11 17 15 12 15 12 12 13 10 8 8 14 10 5 11 12 13 15 19 24 27 25 22 19 17 15 14 13 13 14 16 15 14 14 14 13 13 14 14 15 15 15 15 15 15 15 15 15 15 14 14 14 14 15 15 14 15 16 16 16 16 17 18 19 19 18 18 17 18 18 18 18 18 17 16 15 13 12 11 11 12 11 11
2 1 3 2 3 4 2 4 5 3 2 2 4 8 9 12 14 16 17 15 14 10 8 8 7 10 7 5 12 13 15 17 20 24 28 26 22 20 18 16 16 16 14 14 16 16 15 14 14 13 13 13 13 14 14 14 14 14 14 14 15 15 15 14 14 14 14 15 15 15 15 15 16 16 16 16 17 17 17 16 16 17 17 17 17 17 17 18 17 16 14 12 11 10 10 10 10
2 2 2 3 1 2 2 3 4 4 3 4 6 11 10 7 12 20 19 12 10 10 10 8 7 7 7 8 11 15 18 19 21 26 29 25 23 21 18 17 17 18 16 15 16 17 16 14 13 13 13 12 12 13 12 13 13 12 13 13 13 14 14 14 14 14 14 14 15 15 15 15 15 15 15 15 15 15 15 14 15 15 15 15 15 16 16 16 17 17 15 13 12 10 9 8 8
4 4 1 2 2 2 2 4 4 6 3 4 9 13 11 7 10 18 19 11 7 13 13 8 6 4 7 9 9 17 20 20 23 28 30 25 23 21 19 18 17 18 18 16 17 18 17 15 14 13 12 12 11 11 11 11 11 11 11 11 12 12 13 13 13 13 13 13 14 14 14 14 14 14 14 13 13 12 12 12 12 12 12 13 13 13 14 14 15 15 15 14 13 11 9 8 7
4 3 2 2 2 2 3 4 5 5 3 5 12 13 9 7 10 13 14 13 12 14 12 7 6 3 8 11 8 15 19 20 25 30 31 26 23 22 21 18 17 18 17 17 17 18 18 15 14 13 12 12 11 11 10 10 10 10 10 10 10 10 11 11 11 11 11 12 12 12 12 12 12 12 12 11 10 10 9 9 9 9 10 10 11 11 11 11 12 13 13 13 12 11 10 8 7
3 0 1 3 3 2 3 5 5 5 4 6 12 13 8 6 9 13 11 15 16 13 10 7 7 6 8 8 7 13 16 20 27 32 32 27 25 25 23 21 19 19 17 18 18 19 18 16 15 14 13 12 11 11 10 9 9 8 9 8 8 8 9 9 9 10 10 10 10 10 10 10 10 10 10 9 8 8 8 8 7 7 7 8 8 9 9 9 10 10 10 11 11 10 10 9 7
2 2 2 4 3 3 5 5 6 8 5 8 13 13 11 7 9 15 12 13 16 11 10 11 8 8 7 8 11 13 15 20 28 32 34 30 28 27 27 25 23 22 20 19 19 20 19 17 16 15 13 12 12 11 10 9 9 8 8 7 7 7 7 8 8 8 8 8 9 9 9 9 9 8 8 7 6 6 6 6 5 5 6 6 7 7 7 8 8 8 8 8 8 8 8 8 7
5 2 1 4 4 4 4 8 12 11 11 13 15 14 14 12 13 15 8 10 16 11 9 12 12 12 11 13 15 15 16 21 27 31 33 33 31 30 28 26 24 24 22 21 21 20 20 19 17 16 15 14 13 12 11 10 9 8 8 7 7 7 6 6 7 7 7 7 7 7 7 7 8 7 6 6 5 4 4 4 3 3 4 4 5 5 5 6 6 6 6 6 6 6 6 6 6
6 4 1 5 5 5 4 11 18 16 20 18 15 14 13 15 16 14 9 10 12 10 11 12 15 17 17 18 18 17 17 20 25 28 31 32 32 30 29 26 24 25 23 23 23 21 20 20 18 17 16 16 14 13 12 11 10 9 8 8 7 7 7 7 7 7 6 6 6 6 6 6 7 6 5 5 4 3 2 2 1 1 2 2 3 3 4 4 5 5 5 5 5 5 4 4 4
5 5 4 5 3 3 6 3 15 21 26 22 18 13 10 16 17 14 13 9 5 11 18 15 16 21 21 21 20 18 18 21 24 27 29 31 32 30 29 26 22 23 22 22 25 23 21 20 19 18 17 17 16 15 13 11 11 10 9 9 8 8 8 8 8 7 7 6 6 6 6 7 7 6 5 4 3 3 2 1 1 1 1 1 3 3 3 4 4 4 4 5 5 5 5 4 3
3 5 10 7 4 2 3 4 10 21 24 21 17 12 12 16 15 16 15 8 7 15 21 18 18 20 20 21 21 20 20 21 23 26 28 30 31 30 29 26 23 23 21 22 25 24 23 21 20 19 18 18 17 15 14 13 12 11 10 10 10 10 9 9 9 9 8 8 8 6 6 7 7 6 5 5 4 3 2 2 2 2 2 2 2 3 3 4 4 4 4 4 4 5 6 6 5
4 7 8 5 3 3 2 2 6 17 21 18 15 14 17 15 10 16 15 9 10 14 18 19 18 17 19 20 21 21 20 21 23 23 26 28 29 29 28 27 24 23 21 21 24 24 24 23 21 20 19 19 18 17 16 16 15 13 12 11 11 11 10 10 10 11 10 10 10 8 7 7 6 6 5 5 5 5 4 4 4 4 3 3 4 3 3 4 5 5 5 5 5 5 6 6 7
7 5 5 2 1 3 4 2 4 14 20 17 17 16 17 13 7 13 13 9 9 7 10 18 20 17 19 20 20 19 18 18 20 20 22 25 26 26 25 25 24 22 21 20 21 23 23 24 24 22 22 21 20 19 18 18 17 16 15 14 13 12 11 11 11 11 11 11 11 10 8 9 8 6 7 7 7 7 6 7 7 6 5 5 6 5 4 6 6 6 7 7 7 7 7 7 7
7 5 4 1 1 1 4 3 3 11 14 14 16 13 13 12 8 10 12 10 10 7 6 13 19 21 21 20 20 19 17 16 18 20 22 23 24 24 23 23 23 22 21 20 19 20 21 23 24 24 24 23 22 21 20 19 18 17 16 16 14 13 12 12 11 11 11 11 11 11 10 10 10 9 8 9 9 9 8 9 8 8 8 7 7 7 6 7 8 8 8 8 9 9 8 8 8
6 7 4 2 2 0 3 4 3 7 9 12 13 8 8 10 6 8 14 14 11 9 7 11 17 21 22 20 19 19 17 17 18 20 20 22 24 25 23 22 22 22 20 20 19 19 19 21 23 24 24 23 23 22 22 21 20 19 17 16 15 15 14 13 12 12 11 11 10 11 12 11 12 11 10 10 11 11 11 11 10 10 10 9 8 8 8 8 9 9 9 9 10 10 10 10 10
4 6 6 4 3 1 1 3 3 5 5 9 9 5 6 8 5 4 12 16 14 12 11 12 15 18 21 20 19 18 17 17 17 18 19 22 25 26 25 24 24 22 20 20 20 19 18 20 22 23 23 23 23 22 22 22 21 20 19 17 16 16 15 14 13 13 13 12 11 11 12 13 13 13 13 13 12 12 13 12 12 12 12 11 10 10 10 10 10 11 11 11 12 12 12 12 12
3 6 5 2 2 2 1 2 4 4 3 5 6 4 3 4 4 6 11 17 18 17 15 15 15 17 18 19 19 19 18 17 17 19 21 23 24 25 27 27 26 23 22 21 20 19 19 19 21 22 23 23 22 22 21 21 20 20 19 18 16 16 16 15 15 14 13 13 13 13 13 14 14 15 15 15 15 14 14 14 14 14 13 13 13 12 12 12 12 13 13 13 13 13 13 14 14
3 7 2 2 2 0 3 3 5 4 3 5 7 3 2 1 7 11 12 18 21 19 18 18 17 17 17 17 17 18 19 18 20 22 22 21 21 22 24 26 27 26 24 22 20 20 20 19 20 21 22 23 23 22 21 21 20 19 19 18 17 16 16 16 16 16 15 14 14 15 14 14 15 16 16 16 17 16 16 16 15 15 14 14 15 15 15 15 15 15 14 14 14 14 14 15 16
3 4 2 0 4 3 6 5 5 3 4 7 6 2 5 6 14 15 12 19 23 20 20 21 19 18 18 17 17 17 18 20 22 23 21 20 21 21 21 23 26 27 26 24 23 22 20 19 19 20 21 22 23 23 22 21 20 20 19 18 18 18 18 17 17 17 16 16 16 16 15 14 13 14 17 18 18 18 19 18 18 16 15 15 16 16 16 16 16 16 16 17 16 16 16 16 17
3 2 1 2 1 4 6 5 7 4 4 7 5 2 6 7 13 14 15 21 23 22 21 21 21 20 20 20 19 19 20 21 22 21 21 20 21 21 20 21 24 27 28 27 25 23 21 20 20 20 20 20 21 22 22 22 21 20 19 19 19 19 19 18 18 18 17 17 17 17 16 15 14 13 16 18 20 21 20 20 20 19 17 17 17 17 17 17 18 18 17 18 19 19 18 17 18
0 3 3 1 3 4 7 3 9 5 3 6 4 2 6 7 8 9 17 23 22 22 21 21 21 20 21 22 21 22 22 22 21 21 21 21 21 21 21 21 22 25 28 28 27 25 23 22 21 21 20 20 20 20 20 21 21 21 20 20 20 20 20 19 18 18 17 17 18 18 17 17 16 15 15 17 20 22 22 22 22 21 20 19 18 19 19 18 18 18 18 19 20 20 19 18 20
1 3 3 2 4 3 4 3 6 4 3 4 4 2 3 6 4 8 16 22 22 21 20 20 20 18 19 22 22 23 22 23 24 23 22 21 21 21 21 21 21 23 26 28 28 27 26 24 22 21 20 19 19 20 20 20 20 21 21 22 21 21 20 18 17 17 18 18 18 18 18 18 17 16 16 16 18 21 23 24 23 23 23 21 21 21 21 20 18 18 20 21 21 22 21 21 21
3 0 2 4 4 3 2 4 5 4 3 4 5 3 4 6 3 8 14 18 19 18 19 20 20 19 19 20 22 23 23 25 26 26 24 22 22 21 21 21 22 22 23 26 27 27 26 24 23 21 20 19 19 19 19 18 18 19 21 22 21 20 19 17 16 17 17 18 17 17 17 18 18 17 18 18 18 18 20 22 22 23 23 21 21 22 22 22 21 22 22 21 21 22 22 22 22
3 3 3 4 2 4 5 3 4 6 3 4 5 4 9 8 5 7 12 15 17 18 19 20 19 19 21 22 22 22 23 25 26 25 24 24 23 21 21 21 22 22 22 23 25 26 26 25 24 22 20 19 18 18 18 18 17 18 20 21 21 20 19 17 16 16 16 16 17 17 17 18 18 18 19 19 19 18 17 18 19 19 19 19 20 20 20 21 23 25 24 19 19 21 21 22 22
7 6 6 5 4 4 5 4 5 8 4 4 7 6 9 10 7 8 12 14 16 19 19 20 19 18 20 23 24 22 23 24 22 21 22 24 24 23 22 21 22 22 22 22 23 25 26 26 26 25 23 21 20 19 19 19 19 19 20 20 21 20 18 17 16 16 16 16 17 17 18 18 18 18 19 19 19 18 17 17 17 17 17 18 19 19 19 19 19 20 21 19 20 22 21 21 22
5 5 5 7 6 4 3 3 4 5 5 5 8 7 8 9 8 11 15 14 15 18 17 19 22 20 22 24 24 24 24 23 18 17 19 22 23 24 23 22 22 23 23 23 24 25 25 26 26 26 25 23 22 21 21 21 21 21 21 21 20 19 18 18 17 17 16 16 17 18 18 19 18 18 18 18 18 18 16 16 17 17 16 17 20 20 20 18 16 17 17 16 19 21 20 19 20
2 4 5 6 6 5 3 2 3 1 2 5 5 6 9 9 8 11 13 11 14 21 19 21 24 24 24 25 25 25 24 23 19 17 18 19 21 23 24 24 24 24 25 25 26 25 25 26 26 26 25 24 23 22 22 21 21 21 20 20 19 18 18 18 18 17 16 16 16 17 17 18 18 17 17 17 17 17 17 17 16 16 15 16 18 21 21 19 18 19 19 16 15 19 20 18 20
2 3 4 4 4 3 2 3 2 1 1 3 2 4 9 10 9 10 11 12 17 24 25 25 26 26 27 27 26 26 25 24 21 20 20 20 21 22 23 26 26 25 25 25 26 25 26 27 26 26 25 25 24 22 22 21 21 20 20 19 18 18 18 18 18 17 17 17 17 17 17 17 17 16 16 17 18 18 18 18 18 18 16 15 16 19 21 20 19 21 23 20 18 23 24 20 21
3 3 4 3 3 3 2 3 2 1 1 1 1 2 6 8 7 7 15 21 22 24 27 27 27 27 28 28 27 27 27 26 24 23 22 23 24 24 24 25 26 27 26 25 26 26 27 27 27 27 26 25 24 22 22 21 20 20 19 19 18 18 19 18 19 19 19 19 18 17 17 17 16 16 16 16 17 18 18 19 19 17 16 17 18 19 20 20 20 23 25 24 25 29 28 23 24
4 3 5 2 3 4 3 2 2 2 3 0 3 4 6 5 6 7 12 18 18 19 23 26 29 30 28 27 27 28 28 27 26 25 24 24 26 26 25 24 24 25 26 26 26 26 26 27 27 27 26 25 24 23 22 22 22 21 21 21 20 21 22 21 22 21 20 19 18 17 17 17 16 16 16 16 17 17 16 18 18 15 16 19 21 21 20 19 19 22 23 23 24 25 24 24 27
5 4 5 5 5 4 4 6 4 4 4 3 2 1 6 4 5 8 7 7 11 15 18 24 31 32 31 30 29 29 28 27 27 25 25 25 26 26 25 25 24 25 24 24 24 25 26 26 27 27 27 27 25 24 24 23 24 23 23 24 24 24 24 22 21 19 18 17 17 17 17 17 17 17 17 17 18 18 18 18 17 16 17 18 19 19 18 18 19 21 21 22 23 22 22 24 25
4 5 4 6 7 7 7 6 3 2 2 3 3 4 5 6 5 7 5 5 9 10 12 20 29 30 32 34 32 29 27 27 27 26 26 26 26 26 26 26 26 24 23 23 24 25 25 27 28 29 29 29 27 26 25 25 25 25 25 25 25 25 23 20 18 17 17 18 18 19 19 18 18 19 18 18 19 19 20 20 19 19 17 16 18 19 20 21 21 20 19 21 22 23 26 25 24
4 4 4 8 8 8 7 6 3 2 3 3 3 4 3 5 6 8 5 4 7 7 8 14 22 26 29 32 31 28 27 27 27 27 28 27 27 27 27 26 25 24 23 25 26 26 26 27 27 28 29 29 28 27 26 26 26 25 25 25 25 24 22 19 18 19 19 20 20 20 20 19 19 18 18 17 17 18 20 21 20 20 18 16 17 19 22 22 19 19 20 21 21 21 24 24 24
5 5 6 7 7 8 7 6 3 1 1 3 5 1 2 5 7 6 4 3 6 7 8 10 17 24 27 29 29 28 26 26 26 26 27 28 28 28 27 26 25 24 24 25 26 27 28 28 27 28 28 29 28 27 26 26 26 26 26 26 26 24 21 21 21 21 21 22 21 20 19 19 17 16 15 14 15 16 18 19 20 20 19 18 17 18 22 22 21 21 21 21 21 21 23 23 24
5 3 5 4 4 5 5 5 4 2 1 5 6 2 2 5 6 4 3 2 6 8 8 9 16 23 26 28 28 27 27 27 27 27 27 28 28 28 28 28 28 27 27 26 27 28 29 30 29 29 28 28 28 27 27 27 27 27 27 26 24 22 22 23 23 23 23 22 20 18 17 15 13 12 12 12 12 13 15 16 17 17 17 18 19 20 22 24 23 21 20 19 20 21 21 22 23
6 5 6 6 5 5 4 3 4 2 2 6 7 4 4 3 6 4 4 5 6 7 6 8 13 18 21 24 24 24 25 26 27 28 28 30 30 30 31 31 31 31 30 29 29 30 30 31 31 30 30 29 29 28 28 27 27 27 25 23 22 22 23 23 23 22 20 18 15 13 11 10 9 10 10 10 10 11 12 13 14 15 16 17 18 19 20 21 21 21 21 23 22 20 20 23 25
8 5 5 4 3 4 5 4 3 1 5 6 5 3 4 4 5 4 6 6 5 6 6 7 10 11 13 17 18 20 21 22 23 24 25 27 28 30 31 31 32 31 31 31 30 31 31 32 32 31 31 31 30 29 28 27 26 24 22 21 22 22 22 21 20 18 15 13 10 8 7 7 8 8 8 8 7 7 8 10 11 12 13 14 15 16 17 18 19 20 21 23 24 24 25 26 27
5 4 6 4 1 3 2 2 1 3 5 4 3 1 3 5 7 8 10 10 9 8 8 7 9 10 12 15 16 17 17 18 19 20 21 23 24 26 27 28 29 29 29 29 29 30 31 31 32 31 32 31 30 29 27 25 23 22 21 21 21 21 20 18 16 13 11 9 8 7 7 7 6 6 4 4 4 5 5 7 8 9 10 11 11 11 12 12 13 15 16 18 19 21 22 23 23
5 6 6 5 3 3 2 3 1 3 5 4 3 2 3 3 5 10 13 16 17 13 9 9 10 13 15 16 16 15 16 16 17 18 20 21 22 23 25 25 26 25 25 25 26 27 28 28 29 30 30 30 29 28 26 24 23 22 21 20 19 18 16 14 13 12 11 9 9 8 8 6 4 2 2 2 3 4 4 5 6 6 6 7 8 8 9 9 9 10 10 11 12 14 15 16 17
4 5 6 5 5 4 4 3 3 4 4 3 3 1 3 3 4 8 10 13 16 13 12 12 12 14 14 15 14 14 14 14 15 17 18 19 20 21 22 23 23 23 23 23 23 24 24 25 26 26 27 27 27 26 25 24 23 21 19 17 16 15 14 14 13 13 11 10 9 7 5 2 1 3 4 5 5 5 5 5 5 6 6 5 6 6 7 7 8 8 8 8 9 10 10 11 12
3 3 5 4 5 5 3 3 5 4 1 1 2 3 5 4 5 9 7 6 6 6 8 9 11 13 14 14 13 12 12 12 13 14 15 16 16 17 18 19 19 20 21 21 21 21 21 22 22 22 23 23 23 23 23 22 20 19 17 16 15 16 16 15 14 12 10 8 5 3 1 1 3 4 5 5 6 6 6 6 6 6 7 6 6 6 6 6 6 7 8 8 8 8 8 9 9
1 3 4 4 4 6 4 2 1 3 2 3 2 3 5 3 6 9 6 5 5 3 5 9 11 13 14 14 13 12 12 11 11 12 13 13 13 13 14 15 16 17 19 19 19 19 18 18 18 19 19 19 20 20 20 20 18 18 18 18 18 18 17 15 13 10 8 5 3 2 1 1 2 3 4 4 4 4 4 4 4 5 5 6 6 7 7 8 8 8 8 8 8 9 9 9 9
4 4 6 4 3 4 4 2 2 2 2 4 2 4 5 2 3 6 5 3 7 6 7 9 11 13 14 14 13 12 11 10 11 11 12 12 12 12 13 14 15 16 17 18 17 17 16 16 17 18 19 19 19 20 20 20 19 20 20 20 19 18 16 13 11 9 6 5 3 2 2 2 2 2 2 2 2 2 2 2 3 3 4 5 6 7 7 8 8 8 8 9 9 9 10 10 11
3 3 3 4 2 1 2 3 2 1 3 4 3 4 4 3 5 5 4 5 8 9 8 8 10 14 16 15 13 13 12 12 13 12 12 12 12 13 14 14 14 14 15 16 16 16 17 17 18 18 19 19 20 21 22 22 21 21 21 20 18 15 13 11 9 7 6 5 4 4 3 3 3 2 2 1 1 0 1 1 2 3 4 5 5 6 6 7 7 8 9 10 10 11 11 12 13
2 2 2 2 2 4 3 3 4 3 3 4 3 2 3 5 6 5 7 10 10 10 8 7 12 17 18 17 17 16 15 14 14 13 13 13 13 13 13 12 12 13 14 15 15 17 18 19 20 21 21 22 23 23 23 23 22 21 19 17 15 13 11 10 9 8 7 6 5 5 4 4 3 3 3 2 2 2 2 2 3 3 3 3 4 5 6 7 8 9 10 11 12 13 13 13 13
2 2 3 2 1 2 1 1 3 4 3 4 3 3 5 6 5 7 11 11 9 9 7 8 14 20 22 21 19 19 17 15 15 14 14 15 15 14 13 12 13 14 15 16 17 18 20 21 22 23 23 24 24 24 23 22 21 19 17 15 14 13 12 10 9 8 7 7 6 6 5 5 5 5 4 4 4 3 3 3 2 2 2 2 4 5 7 8 10 11 12 13 14 14 14 14 14
5 6 7 7 4 4 3 3 2 2 3 4 4 4 7 6 4 6 9 8 7 9 9 10 16 22 25 23 21 20 17 15 16 16 16 16 16 15 15 15 16 17 18 18 19 20 21 23 24 24 23 23 23 22 22 20 18 17 16 15 14 13 12 11 10 9 8 8 7 6 6 6 6 6 5 5 5 4 4 3 2 1 2 3 5 7 8 10 12 13 13 14 15 15 16 16 17
Wind_Direction
239 247 272 264 266 280 308 345 328 315 67 38 252 126 228 169 123 115 87 76 74 63 76 82 75 57 65 115 115 90 47 352 218 134 139 142 138 153 162 157 166 157 150 144 142 139 124 102 89 82 81 85 88 94 101 109 114 113 109 110 109 100 93 89 82 71 72 79 81 87 89 89 88 86 84 84 84 86 88 84 79 79 79 82 85 82 81 82 83 85 87 89 92 94 96 97 96
244 256 276 266 265 300 331 26 47 345 49 4 290 160 184 72 75 114 106 90 105 104 91 91 76 54 89 119 96 73 39 33 121 119 122 135 140 159 169 167 173 158 151 144 141 137 121 103 94 88 88 91 92 94 100 107 113 114 112 108 103 97 93 87 77 67 68 78 88 93 93 93 93 91 89 89 89 87 90 88 78 76 78 79 81 81 83 85 84 86 88 89 91 94 98 100 101
251 263 262 267 297 338 318 358 128 12 74 174 268 280 113 79 92 123 110 108 108 106 103 97 76 51 78 90 47 67 64 68 110 117 123 143 149 160 177 179 173 161 153 141 139 135 117 107 98 94 95 94 95 96 99 107 111 113 112 107 105 101 99 91 80 70 65 72 91 96 94 95 94 94 93 90 91 90 91 91 81 77 77 77 77 78 81 84 87 88 89 89 93 97 101 104 105
255 267 258 285 355 8 335 43 174 147 70 187 209 300 80 111 119 118 111 114 112 109 112 100 73 61 74 88 81 82 89 101 119 124 132 153 155 160 178 178 170 161 150 140 138 131 117 108 101 98 98 98 97 96 100 106 108 110 112 110 107 105 103 97 84 73 65 69 90 96 94 97 96 96 97 91 90 92 92 91 83 78 77 78 78 78 81 85 88 89 91 90 93 98 103 106 108
252 259 252 299 360 6 48 58 201 97 224 191 145 231 139 125 123 115 116 118 117 115 120 109 84 89 83 88 99 93 109 126 133 135 139 154 159 162 172 169 166 159 147 143 138 130 119 110 103 102 101 101 101 99 101 105 109 112 114 113 110 108 106 102 92 82 74 75 88 94 93 96 98 97 97 94 92 93 92 88 81 78 77 77 78 79 82 84 86 89 93 94 96 100 105 109 111
245 236 224 263 295 317 10 285 305 14 245 175 124 177 152 132 125 115 114 115 110 118 125 109 119 111 83 80 96 114 136 141 144 146 147 153 159 163 162 160 164 157 147 144 139 132 122 114 106 103 104 104 105 104 103 106 112 115 116 117 115 113 110 107 99 88 85 86 90 94 95 94 95 95 95 94 94 93 89 84 81 79 78 77 78 78 79 81 84 86 91 97 100 103 107 112 114
242 219 201 286 275 294 125 158 245 262 272 141 130 156 153 138 127 117 113 110 102 116 117 109 125 107 88 116 104 110 151 165 152 150 154 151 157 162 154 159 166 155 145 145 141 135 127 119 112 105 104 105 108 108 107 108 112 117 119 120 118 116 114 111 100 92 94 93 93 94 95 94 92 91 91 93 93 93 90 85 83 83 82 79 80 82 83 83 85 89 93 99 104 107 111 115 117
221 191 54 12 305 356 132 173 240 196 50 72 130 148 148 142 133 126 123 122 131 129 119 122 121 95 106 140 110 118 146 164 158 151 157 153 156 157 152 165 167 151 143 147 145 140 135 128 119 108 104 105 108 109 108 107 108 114 119 122 123 121 118 112 102 98 98 96 95 94 95 96 95 95 95 96 94 94 93 89 87 85 83 79 79 81 84 86 88 93 99 103 105 109 113 117 119
207 215 16 57 235 331 295 257 238 204 195 103 121 148 145 143 138 130 123 121 144 145 134 140 119 114 128 117 110 138 149 163 161 151 155 155 154 154 158 172 167 150 145 151 150 146 142 135 125 112 106 104 105 107 106 105 104 108 115 122 126 123 116 107 103 101 100 98 98 97 96 96 99 101 100 100 100 98 95 92 89 86 81 77 75 74 76 80 84 91 98 103 105 108 112 115 119
199 215 279 73 101 319 301 286 207 213 230 145 123 149 144 141 136 128 126 124 147 143 139 143 119 135 130 110 121 149 157 164 162 154 156 153 150 155 168 177 167 151 151 157 156 153 148 141 132 120 112 107 106 106 105 104 103 105 110 116 118 116 111 107 105 103 103 103 103 101 98 95 97 101 100 100 100 98 95 91 88 84 80 75 71 69 70 74 80 88 95 102 106 108 111 113 116
154 238 252 69 65 255 258 258 191 210 243 142 111 143 146 143 132 124 124 122 144 136 143 149 125 135 123 114 136 155 167 167 168 161 157 152 148 162 177 178 169 158 158 161 161 159 154 148 140 131 122 115 111 109 108 107 106 107 109 112 113 113 111 110 108 105 105 106 106 104 101 97 94 96 97 97 97 97 94 90 87 83 80 76 71 69 68 72 78 87 96 102 108 110 112 114 116
54 306 103 123 203 211 214 176 184 206 152 89 127 145 149 144 129 126 127 124 141 136 156 159 139 142 116 116 144 156 175 170 174 168 159 152 151 169 181 179 175 169 168 167 167 166 162 156 147 140 132 125 119 115 113 111 109 108 108 111 112 113 113 112 110 108 107 107 105 103 101 99 96 95 95 96 98 97 95 92 88 83 80 77 74 70 68 70 75 83 94 101 107 111 114 117 118
233 359 81 190 200 184 178 158 181 162 137 221 184 158 151 143 131 136 133 132 145 142 164 157 149 149 105 118 146 161 179 173 175 169 159 153 155 173 183 183 184 179 177 177 174 171 168 164 156 150 142 135 129 123 119 116 113 111 109 110 111 112 113 113 113 110 109 108 107 104 103 102 100 98 96 98 98 97 96 92 89 84 80 77 74 72 68 68 69 75 84 92 100 106 112 116 119
227 11 71 226 246 195 173 156 183 142 188 235 174 162 154 137 134 143 136 130 150 151 159 157 151 144 118 126 153 176 178 173 175 166 158 155 160 175 187 190 196 188 181 184 181 176 172 170 167 160 153 145 139 132 127 124 120 117 113 111 111 111 112 112 112 112 111 111 110 108 106 106 105 103 101 99 98 97 95 91 88 85 80 77 73 70 68 67 67 67 72 79 86 93 103 109 117
265 334 45 241 328 298 210 174 176 148 192 210 166 163 145 112 127 145 144 136 144 152 155 157 151 141 164 166 181 185 176 172 171 164 158 159 162 173 189 197 206 196 184 186 184 180 176 175 176 170 164 156 150 144 138 135 130 126 121 117 114 112 112 112 112 113 113 114 113 113 111 110 110 108 105 102 101 99 95 91 87 83 79 76 71 68 65 65 66 66 65 67 72 78 86 95 106
290 308 58 297 274 279 246 173 137 137 211 190 166 163 135 98 119 131 146 150 136 148 159 159 166 156 177 190 198 179 174 171 166 165 163 163 167 171 185 195 206 203 192 187 182 183 180 179 182 179 174 167 162 158 153 150 143 138 132 125 122 117 117 115 115 115 116 117 117 118 117 115 114 112 110 107 105 102 97 91 84 79 75 71 69 64 60 61 63 63 64 64 64 67 72 78 87
299 298 86 297 256 245 232 181 158 159 193 184 172 167 141 97 116 119 136 154 139 145 155 138 164 160 164 190 180 162 168 169 166 170 170 167 171 173 181 190 199 203 198 190 182 182 181 181 185 184 181 177 173 171 167 165 161 154 146 139 133 128 125 123 120 121 121 120 122 124 124 122 120 118 115 113 110 105 98 89 82 76 70 66 64 61 56 54 55 56 60 61 60 60 63 68 71
225 128 162 252 239 218 223 200 174 149 150 181 182 174 155 135 127 127 128 145 138 137 142 137 154 155 153 164 159 160 167 170 171 176 176 174 177 180 184 189 197 200 198 193 186 182 182 184 188 187 184 183 182 181 179 177 178 173 165 160 153 147 140 136 132 131 131 127 129 131 132 131 128 126 121 119 116 106 99 89 80 70 61 57 53 52 48 46 46 45 47 51 55 55 53 59 64
200 162 171 230 217 241 241 170 151 143 159 174 177 172 165 164 150 142 138 143 142 131 127 139 145 143 148 159 164 171 173 176 178 181 183 183 186 190 192 193 198 198 197 195 189 185 185 186 189 189 185 187 188 188 190 185 186 187 183 181 177 175 165 158 152 148 147 142 144 142 141 142 137 137 133 129 125 112 105 95 81 64 49 39 35 36 34 35 35 32 34 33 39 45 45 49 54
210 197 239 242 241 297 324 154 158 159 160 163 172 174 173 174 163 157 159 154 156 155 152 151 150 152 158 165 173 178 178 182 184 185 188 191 195 198 200 201 201 198 196 196 192 188 189 191 191 191 188 190 192 192 196 193 190 194 194 194 197 198 192 186 178 172 171 165 167 163 160 159 151 146 144 142 133 124 119 109 94 55 32 14 4 11 13 15 16 13 16 15 16 22 24 30 39
203 181 207 255 302 302 335 139 165 163 159 161 169 167 166 173 171 171 160 150 188 192 185 188 180 175 174 174 180 183 183 186 188 191 192 195 199 201 205 209 208 201 197 198 196 191 193 197 194 193 194 195 197 196 198 200 198 201 203 203 208 211 209 208 202 195 194 193 194 187 184 185 175 161 160 164 153 149 154 159 198 299 335 341 328 335 344 345 348 346 351 352 353 356 350 350 7
232 242 228 260 338 181 306 347 154 158 157 157 159 151 154 164 172 178 166 159 219 209 204 213 205 196 193 187 186 188 188 190 193 196 196 199 202 204 207 209 209 204 200 200 199 195 195 201 200 198 200 201 201 200 203 207 207 208 210 211 213 218 218 218 218 212 208 213 220 210 204 208 194 181 187 189 188 193 198 225 246 269 285 309 305 312 328 324 322 324 328 327 331 339 331 327 332
229 272 243 262 315 187 252 330 137 156 155 153 157 151 152 155 169 183 180 186 206 210 213 216 213 208 205 196 190 190 192 196 199 202 203 203 204 207 208 209 210 209 207 203 203 200 197 201 203 203 205 207 205 204 208 211 214 215 215 218 217 222 226 225 225 221 216 218 231 232 225 230 214 200 215 219 219 217 217 236 246 252 262 276 275 278 300 302 305 312 312 308 310 312 310 315 321
211 266 277 307 244 204 221 250 111 156 159 159 162 153 155 157 166 186 189 191 180 180 200 207 210 205 198 196 194 195 197 200 205 209 210 209 209 211 211 211 212 213 213 208 206 206 203 202 203 207 209 212 211 208 210 213 218 221 221 225 225 226 229 230 228 225 221 218 230 239 237 242 239 224 225 237 242 236 232 240 245 250 255 264 268 270 280 289 293 299 302 302 301 297 294 299 306
210 239 268 300 207 220 203 208 104 142 152 159 161 152 166 170 165 184 187 180 171 166 169 181 193 196 193 196 197 197 199 201 206 208 210 213 211 212 212 211 212 213 215 214 211 209 209 206 205 209 212 215 216 216 217 217 221 226 228 231 236 237 235 237 236 232 229 220 224 237 240 243 248 244 235 239 250 253 250 248 251 255 257 261 270 279 286 289 290 292 295 297 298 297 294 294 294
218 222 209 164 180 160 175 200 137 124 136 154 154 135 157 170 166 188 191 186 183 189 185 169 178 188 190 193 195 197 200 201 203 206 210 213 211 210 209 209 213 215 217 219 217 212 210 211 210 212 214 216 218 221 224 224 225 230 235 238 242 247 246 247 246 245 245 237 229 234 241 243 247 251 249 244 247 256 261 261 262 264 266 268 272 279 285 287 288 290 290 291 295 296 296 292 289
254 212 184 156 167 188 159 214 182 128 133 155 151 127 138 159 169 201 194 192 192 188 182 177 178 184 187 189 193 197 202 206 206 207 208 210 211 210 207 207 213 218 218 219 218 215 212 213 215 216 216 217 218 221 225 228 229 230 237 241 242 246 248 250 252 254 253 253 248 241 241 243 247 251 253 253 250 252 258 263 266 266 269 272 273 273 276 280 283 284 286 290 294 293 293 291 290
253 173 167 129 134 171 163 168 177 148 141 162 135 113 107 130 182 217 191 190 196 191 180 182 186 187 189 193 197 201 205 208 209 208 209 212 213 212 209 207 210 217 220 221 222 223 221 218 216 217 220 222 221 221 223 227 229 229 232 238 241 243 246 248 251 254 255 256 257 255 249 245 248 251 253 257 258 256 256 259 260 261 263 265 268 268 270 274 276 278 283 288 291 292 292 292 291
214 166 178 325 20 301 215 173 181 176 155 162 123 103 287 218 218 220 196 189 191 190 186 185 189 191 194 198 203 208 210 208 209 212 215 218 219 218 215 212 211 215 220 223 226 228 226 221 216 216 220 225 226 226 225 227 229 228 230 234 238 241 244 246 248 252 256 256 257 259 258 251 246 247 251 254 259 262 262 260 257 256 256 257 261 265 269 272 274 277 282 285 286 289 293 293 292
223 176 141 357 2 306 228 186 176 176 168 177 143 180 258 250 232 223 197 187 186 188 191 190 193 196 198 204 208 213 213 212 214 216 217 219 222 223 222 218 214 216 218 221 224 228 227 223 220 218 220 224 227 229 228 228 230 231 231 235 238 242 244 246 248 251 254 254 254 257 260 259 249 242 245 248 252 257 262 265 264 260 254 252 257 262 267 269 272 276 280 281 281 283 288 291 292
217 213 168 130 111 267 256 189 165 157 197 192 157 219 253 261 245 230 203 191 187 189 195 197 200 202 205 208 213 218 217 218 221 221 220 221 222 224 224 223 218 216 216 219 225 229 231 230 228 225 223 224 226 228 230 231 233 234 236 237 240 244 247 248 250 252 253 253 253 255 258 261 259 247 242 244 248 251 256 261 267 268 263 255 254 256 261 264 269 275 276 277 278 279 282 283 284
175 193 256 286 158 258 303 230 179 167 200 190 161 224 257 267 256 223 202 196 194 197 201 204 207 208 210 211 215 220 222 223 225 225 224 224 223 223 223 223 221 217 215 220 225 229 232 234 234 232 229 227 227 228 230 232 234 236 238 240 242 245 248 249 251 253 253 253 253 255 257 259 262 259 251 246 245 249 252 256 261 267 270 268 264 263 263 262 265 271 274 276 278 280 279 277 277
336 158 226 234 174 239 313 267 219 191 161 190 208 228 251 271 250 183 189 194 197 202 202 204 210 214 213 213 218 221 222 222 224 226 225 225 224 223 224 223 223 221 217 219 223 227 231 233 235 235 234 231 230 228 229 230 232 235 238 240 242 244 247 248 249 251 252 253 253 255 257 259 261 263 263 258 251 249 252 256 258 260 267 272 272 273 276 276 275 274 276 279 280 281 277 275 277
291 107 206 238 188 182 237 284 255 199 159 204 221 231 240 274 256 175 184 189 195 200 200 203 209 216 217 215 219 223 225 225 226 228 226 226 226 224 225 224 224 225 222 221 223 228 231 233 235 235 235 233 231 228 226 227 229 232 234 237 240 243 246 247 247 248 249 251 254 256 258 261 265 266 266 266 263 257 255 258 260 260 266 271 272 276 280 283 282 277 278 280 282 282 276 274 277
203 175 205 263 233 191 202 242 226 177 172 214 199 233 249 265 274 214 201 194 200 208 208 209 211 217 220 217 219 224 228 231 232 231 229 229 229 227 226 225 225 226 224 223 223 226 229 232 235 235 234 231 227 225 223 225 226 227 229 232 236 239 242 246 248 249 250 252 255 259 260 263 266 267 267 267 269 269 264 262 263 263 263 266 271 274 279 285 284 279 278 278 282 286 281 275 276
181 182 187 209 222 234 212 238 230 174 163 220 202 220 243 249 262 243 220 205 210 221 221 218 217 221 221 218 222 226 229 235 237 233 230 229 229 230 228 226 226 225 225 224 222 224 227 228 230 231 231 230 227 223 221 222 223 225 227 230 236 240 244 248 250 253 255 256 259 262 264 266 265 265 266 266 269 274 274 271 270 266 258 262 272 276 282 292 296 289 282 277 278 281 281 279 280
198 187 196 201 205 241 246 274 264 170 157 223 217 223 246 247 247 244 230 215 215 225 225 220 217 219 220 220 224 228 234 240 241 234 229 228 229 230 229 228 226 224 223 222 222 223 225 226 228 229 229 229 228 225 224 224 225 227 230 235 241 245 249 251 254 257 259 262 263 264 266 268 267 266 267 267 269 274 276 273 271 268 263 264 270 274 279 286 293 293 285 279 278 278 281 284 287
229 181 205 216 206 229 259 276 273 165 162 244 238 232 252 251 243 246 233 212 218 222 218 219 218 217 219 222 225 231 237 241 237 232 227 224 226 228 228 226 224 224 223 222 224 224 225 227 228 229 229 230 230 229 228 230 233 235 239 245 249 250 251 254 259 262 264 265 264 264 265 265 268 269 268 268 268 271 274 274 272 271 268 265 264 268 274 278 282 283 277 276 285 284 279 281 289
216 150 170 219 217 215 302 318 302 61 162 268 282 229 251 257 252 253 236 219 227 227 222 223 222 219 220 221 223 228 232 233 231 229 228 224 224 225 226 226 224 226 226 226 226 226 226 228 229 230 230 232 233 233 234 236 239 242 245 248 249 251 254 257 261 262 262 262 261 262 264 266 269 271 269 266 264 267 270 273 273 270 271 272 270 270 273 276 279 280 276 275 287 286 277 283 296
221 134 132 225 220 169 247 284 294 19 152 213 45 280 265 266 266 262 243 235 235 234 231 230 229 227 228 227 228 229 228 229 228 227 226 225 225 224 224 225 225 225 226 227 227 227 228 230 231 231 231 233 235 236 239 241 242 243 245 246 247 250 253 253 254 254 255 258 261 263 264 267 269 271 271 267 264 267 270 273 274 273 278 277 275 277 275 275 278 279 278 279 284 283 280 285 293
255 181 154 211 207 182 203 171 137 4 341 3 65 347 297 258 255 257 246 242 241 235 228 227 230 232 235 236 236 235 233 232 232 229 225 224 224 225 226 227 225 225 226 228 230 232 233 234 235 235 234 235 236 239 241 241 241 240 240 240 240 242 243 245 248 252 256 260 264 265 266 267 268 270 269 265 263 265 268 273 277 277 272 264 266 274 277 277 276 273 276 279 278 279 283 286 287
260 230 190 186 173 154 126 119 97 43 332 279 115 353 293 289 261 253 254 257 250 237 221 221 228 229 231 234 236 236 235 234 234 234 231 228 226 226 226 226 225 226 228 231 234 237 239 238 237 237 236 236 237 240 241 241 241 240 241 241 242 244 246 250 256 261 263 265 266 265 264 264 265 266 263 261 262 262 261 265 271 271 266 268 277 281 279 277 274 271 275 280 280 279 281 283 285
231 248 192 149 130 120 131 139 115 106 242 279 108 162 260 316 302 262 260 259 255 244 226 226 229 229 229 232 235 234 231 230 229 230 231 229 227 225 226 227 229 231 232 233 234 235 237 237 236 236 237 237 238 238 238 239 240 241 243 246 248 251 253 257 261 261 260 259 259 258 257 257 258 260 260 260 261 261 261 262 265 266 267 276 281 274 272 279 284 284 283 283 285 285 281 279 283
218 242 136 123 126 136 155 154 145 185 214 321 23 134 221 294 279 271 271 263 280 275 247 240 233 230 232 232 233 230 228 229 227 226 226 225 225 226 228 231 234 235 234 232 231 232 235 236 236 236 236 237 237 236 236 237 240 242 244 245 246 248 251 253 254 253 254 254 255 255 254 251 251 254 257 259 260 261 264 265 267 267 266 270 271 265 269 278 283 282 280 281 281 281 281 280 282
236 223 135 137 147 148 151 141 134 101 103 300 309 116 197 270 273 296 314 283 291 276 249 246 236 231 232 231 230 228 226 226 224 223 222 222 225 227 230 233 234 235 233 232 232 231 233 234 234 234 234 236 235 233 232 234 237 239 241 242 243 245 246 246 247 248 249 250 253 255 254 252 253 256 258 259 260 260 262 263 265 266 262 261 262 261 267 274 275 274 277 281 278 278 280 279 284
212 168 98 86 83 98 112 121 121 67 70 246 259 205 185 273 282 298 323 272 260 259 252 251 241 235 233 232 231 229 227 226 225 224 223 224 228 231 235 237 238 238 236 234 233 231 232 232 232 232 232 233 233 231 230 232 234 236 238 240 241 242 241 240 242 244 246 247 250 250 251 255 261 266 269 269 270 267 266 266 265 266 264 262 262 264 269 276 278 278 278 278 277 279 279 278 286
136 98 66 50 32 40 49 66 97 88 275 251 243 209 173 269 284 246 226 231 221 227 249 260 253 245 238 234 232 230 229 229 230 230 230 231 233 235 239 241 242 242 240 237 234 232 232 231 231 230 230 230 231 230 229 231 234 236 238 239 238 237 236 238 241 243 245 246 246 247 248 256 264 268 271 273 274 271 271 273 274 275 275 275 276 278 280 280 278 275 271 270 271 273 274 276 282
115 94 97 80 1 16 20 1 55 157 252 265 268 234 173 222 266 247 246 262 234 211 224 245 249 242 228 221 220 221 224 228 232 235 237 237 237 237 238 239 240 241 240 239 236 234 232 231 231 229 228 228 229 229 230 231 233 234 234 233 232 232 233 235 238 240 242 241 239 239 239 246 252 253 256 259 263 266 269 275 278 281 282 284 285 284 284 282 280 277 273 271 270 270 273 276 278
101 113 124 123 1 30 16 289 285 222 244 267 299 298 207 230 256 263 269 276 260 230 218 226 222 210 206 206 211 218 226 233 238 241 243 243 242 241 240 240 240 240 239 238 237 235 233 231 230 229 229 229 228 228 228 228 228 227 227 225 224 226 227 229 229 228 226 223 219 219 221 226 228 233 245 262 277 285 284 281 280 280 281 282 283 284 285 284 284 284 283 281 280 281 283 283 282
132 145 143 147 135 97 211 244 266 253 258 277 292 281 258 270 266 252 251 257 259 255 250 249 231 217 216 215 217 226 234 242 245 244 244 244 244 243 243 242 241 240 237 234 232 231 230 228 227 227 228 228 227 226 224 222 221 220 220 219 218 218 216 213 208 202 198 194 191 192 198 206 214 240 302 315 310 307 301 295 290 287 287 285 287 295 301 305 305 305 303 301 299 298 297 296 295
174 166 142 153 162 150 188 207 196 224 261 287 295 262 201 207 255 246 246 262 269 263 253 248 235 223 218 216 220 229 238 245 247 245 244 244 245 245 244 242 239 236 231 227 225 225 225 225 224 224 224 224 223 220 217 215 215 214 211 208 204 200 194 188 183 181 179 177 175 176 183 205 298 332 335 329 325 327 326 325 326 326 329 325 323 324 325 327 328 329 328 325 322 319 316 316 317
217 148 121 164 185 148 145 183 178 171 176 262 250 239 210 206 274 276 267 274 276 240 225 216 204 203 202 209 220 229 239 244 243 246 247 246 246 244 243 241 236 229 223 219 219 219 220 220 220 219 218 218 216 213 210 208 206 202 194 187 183 179 175 172 169 167 165 162 161 158 177 321 330 327 327 327 327 333 337 339 341 343 347 351 357 5 7 7 5 3 1 359 358 357 354 350 345
175 131 166 204 167 119 118 197 156 113 166 245 207 245 283 309 294 291 284 260 266 256 225 207 195 195 200 210 219 226 234 238 239 244 246 247 247 242 238 233 227 220 215 213 213 212 211 209 207 203 201 201 202 199 195 191 187 181 175 170 169 168 164 160 158 156 154 152 155 158 197 290 307 309 313 316 323 333 337 345 351 357 5 9 15 23 29 31 30 26 20 16 15 13 8 3 355
131 162 200 185 108 89 117 166 10 66 216 265 217 218 272 303 266 313 345 265 264 267 241 226 212 205 207 212 217 223 228 229 230 232 235 240 241 237 230 221 215 211 208 207 204 198 194 191 189 186 183 183 184 180 175 171 168 166 164 163 163 160 157 155 153 154 158 164 178 194 213 238 256 267 280 294 308 326 343 4 23 30 34 35 35 36 36 33 29 23 17 13 12 8 1 355 348
145 177 174 131 136 198 147 164 192 184 226 269 284 239 243 213 222 296 317 233 243 247 231 229 226 215 212 213 211 212 217 220 223 225 228 232 232 231 227 219 212 204 200 199 193 185 180 177 176 175 174 171 169 166 162 161 161 161 162 161 160 156 154 156 158 164 174 184 196 210 218 227 234 237 244 247 250 215 83 67 64 56 48 45 43 43 39 30 22 15 8 2 358 354 348 346 341
23 66 95 91 148 177 174 175 165 157 209 247 288 289 253 230 214 227 237 228 231 233 221 220 226 219 216 216 209 206 211 217 221 222 224 224 223 224 222 217 208 197 192 189 183 177 173 171 170 168 167 164 161 159 159 160 161 161 162 160 158 159 161 165 171 178 187 195 204 211 212 214 211 204 199 187 176 156 129 101 80 68 59 55 46 38 28 17 8 359 354 349 345 342 339 337 336
134 131 168 177 102 129 157 209 145 133 171 212 243 265 264 251 212 204 229 237 230 223 216 219 225 222 220 220 214 210 211 215 219 219 217 216 214 212 207 201 196 189 185 182 177 174 171 169 166 163 163 161 159 159 161 163 162 161 161 162 164 169 172 177 183 187 192 196 199 200 197 196 192 187 182 176 171 152 135 120 115 109 76 50 27 16 7 359 353 347 343 340 337 336 333 331 331
176 173 183 182 165 128 147 232 222 153 175 181 192 246 266 256 213 205 231 248 244 228 218 221 226 224 222 219 215 215 214 214 217 214 211 209 205 201 195 191 189 186 183 180 176 174 170 167 163 162 163 162 162 164 164 165 165 164 167 170 174 178 180 185 188 188 191 192 191 188 183 182 182 181 176 169 164 154 152 156 152 131 44 17 1 356 351 346 344 340 337 336 333 332 331 329 329